Probability
0 0 0 0 0 0 0 0 0 0 0 0 0 0 0 0 0 0 0 0 0 0 0 0 0 0 0 0 0 0 0 0 0 0 0 0 0 0 0 0 0 0 0
0 0 0 0 0 0 0 0 0 0 0 0 0 0 0 0 0 0 0 0 0 0 0 0 0 0 0 0 0 0 0 0 0 0 0 0 0 0 0 0 0 0 0
0 0 0 0 0 0 0 0 0 0 0 0 0 0 0 0 0 0 0 0 0 0 0 0 0 0 0 0 0 0 0 0 0 0 0 0 0 0 0 0 0 0 0
0 0 0 0 0 0 0 0 0 0 0 0 0 0 0 0 0 0 0 0 0 0 0 0 0 0 0 0 0 0 0 0 0 0 0 0 0 0 0 0 0 0 0
0 0 0 0 0 0 0 0 0 0 0 0 0 0 0 0 0 0 0 0 0 0 0 0 0 0 0 0 0 0 0 0 0 0 0 0 0 0 0 0 0 0 0
0 0 0 0 0 0 0 0 0 0 0 0 0 0 0 0 0 0 0 0 0 0 0 0 0 0 0 0 0 0 0 0 0 0 0 0 0 1 1 1 1 0 0
0 0 0 0 0 0 0 0 0 0 0 0 0 0 0 0 0 0 0 0 0 0 0 1 1 1 1 0 0 0 0 0 0 0 0 0 0 1 2 2 2 1 0
2 2 1 0 0 0 0 0 0 0 0 0 0 0 0 0 0 0 0 0 0 0 1 2 2 2 1 0 0 0 0 0 0 0 0 0 0 0 1 2 3 2 1
4 4 2 1 0 0 0 0 0 0 0 0 0 0 0 0 0 0 0 0 0 0 1 2 2 1 0 0 0 0 0 0 0 0 0 0 0 0 1 2 2 1 1
4 4 3 1 0 0 0 0 0 0 0 0 0 0 0 0 0 0 0 0 0 0 0 1 1 0 0 0 0 0 0 0 0 0 0 0 0 0 1 1 1 1 1
4 4 3 1 0 0 0 0 0 0 0 0 0 0 0 0 0 0 0 0 0 0 0 0 0 0 0 0 0 0 0 0 0 0 0 0 0 0 0 1 1 1 1
5 4 2 1 0 0 0 0 0 0 0 0 0 0 0 0 0 0 0 0 0 0 0 0 0 0 0 0 0 0 0 0 0 0 0 0 0 0 1 2 3 2 1
5 3 1 0 0 0 0 0 0 0 0 0 0 0 0 0 0 0 0 0 0 0 0 0 0 0 0 0 0 0 0 0 0 0 0 0 0 1 1 1 2 2 1
4 2 1 0 0 0 0 0 0 0 0 0 0 0 0 0 0 0 0 0 0 0 0 0 0 0 0 0 0 0 0 0 0 0 0 0 0 0 0 0 1 1 0
1 1 0 0 0 0 0 0 0 0 0 0 0 0 0 0 0 0 0 0 0 0 0 0 0 0 0 0 0 0 0 0 0 0 0 0 0 0 0 0 0 0 0
0 0 0 0 0 0 0 0 0 0 0 0 0 0 0 0 0 0 0 0 0 0 0 0 0 0 0 0 0 0 0 0 0 0 0 0 0 0 0 0 0 0 0
0 0 0 0 0 0 0 0 0 0 0 0 0 0 0 0 0 0 0 0 0 0 0 0 0 0 0 0 0 0 0 0 0 0 0 0 0 0 0 0 0 0 0
0 0 0 0 0 0 0 0 0 0 0 0 0 0 0 0 0 0 0 0 0 0 0 0 0 0 0 0 0 0 0 0 0 0 0 0 0 0 0 0 0 0 0
0 0 0 0 0 0 0 0 0 0 0 0 0 0 0 0 0 0 0 0 0 0 0 0 0 0 0 0 0 0 0 0 0 0 0 0 0 0 0 0 0 0 0
0 0 0 0 0 0 0 0 0 0 0 0 0 0 0 0 0 0 0 0 0 0 0 0 0 0 0 0 0 0 0 0 0 0 0 0 0 0 0 0 0 0 0
0 0 0 0 0 0 0 0 0 0 0 0 0 0 0 0 0 0 0 0 0 0 0 0 0 0 0 0 0 0 0 0 0 0 0 0 0 0 0 0 0 0 0
0 0 0 0 0 0 0 0 0 0 0 0 0 0 0 0 0 0 0 0 0 0 0 0 0 0 0 0 0 0 0 0 0 0 0 0 0 0 0 0 0 0 0
0 0 0 0 0 0 0 0 0 0 0 0 0 0 0 0 0 0 0 0 0 0 0 0 0 0 0 0 0 0 0 0 0 0 0 0 0 0 0 0 0 0 0
0 0 0 0 0 0 0 0 0 0 0 0 0 0 0 0 0 0 0 0 0 0 0 0 0 0 0 0 0 0 0 0 0 0 0 0 0 0 0 0 0 0 0
0 0 0 0 0 0 0 0 0 0 0 0 0 0 0 0 0 0 0 0 0 0 0 0 0 0 0 0 0 0 0 0 0 0 0 0 0 0 0 0 0 0 0
0 0 0 0 0 0 0 0 0 0 0 0 0 0 0 0 0 0 0 0 0 0 0 0 0 0 0 0 0 0 0 0 0 0 0 0 0 0 0 0 0 0 0
Wind_Speed
1 0 1 3 5 7 8 9 9 9 9 10 10 10 10 10 10 10 10 10 10 10 10 10 11 11 11 11 11 11 10 10 10 10 10 10 11 11 11 11 9 6 10
3 1 2 4 6 8 8 9 9 9 10 10 10 10 10 10 10 10 9 9 9 9 10 10 10 10 11 11 11 10 10 10 10 10 10 8 9 10 11 10 9 7 10
4 3 3 5 7 8 9 9 9 9 10 10 10 10 10 10 10 10 10 9 10 10 10 10 10 9 10 10 10 10 10 11 10 10 9 5 5 9 9 9 9 10 9
5 4 4 6 7 8 8 9 9 9 10 10 10 10 10 9 9 9 9 9 9 9 10 10 10 9 9 9 10 11 11 11 11 9 5 4 3 7 8 8 9 9 9
5 4 4 7 7 8 8 9 9 10 10 9 9 9 9 9 9 9 9 9 9 9 9 9 9 9 9 9 10 10 11 11 10 8 5 4 3 7 8 8 9 9 9
5 4 5 8 8 8 8 9 9 9 9 9 9 9 9 10 9 9 9 9 9 8 8 8 8 9 9 9 10 10 10 10 8 5 4 4 3 7 8 8 8 8 8
5 4 5 7 8 8 8 9 9 10 9 9 9 9 9 10 10 10 9 9 9 8 8 8 8 9 10 10 10 10 10 9 6 5 4 4 4 8 8 8 7 7 7
6 5 5 7 7 8 8 9 9 10 9 9 9 9 10 10 10 10 10 9 8 8 8 8 9 10 10 10 10 10 10 9 6 5 4 4 6 7 8 8 7 7 6
5 5 4 4 6 7 8 9 9 9 9 9 9 9 9 9 10 10 10 10 9 9 8 8 9 10 10 10 10 11 10 10 6 4 4 3 6 7 7 7 7 7 6
5 4 4 4 4 4 5 8 9 9 9 9 9 9 9 9 9 9 8 10 9 9 9 8 9 9 10 10 10 10 10 8 5 4 3 4 7 7 7 7 6 7 6
4 4 4 4 4 4 4 5 6 7 8 8 7 9 8 4 4 5 7 8 9 8 8 9 9 10 10 10 10 10 8 4 4 3 3 6 7 6 6 6 6 7 7
4 3 3 4 4 3 3 3 3 3 3 3 3 4 3 3 3 4 7 8 8 8 7 8 8 8 7 4 6 8 4 5 4 3 4 7 6 6 7 8 8 7 7
4 4 3 3 3 3 2 2 2 2 2 2 3 3 3 3 3 3 2 4 4 6 4 4 4 3 3 3 3 3 4 4 3 3 4 8 8 7 8 8 8 9 8
4 4 4 3 3 3 3 2 2 2 1 1 1 2 2 2 2 2 2 2 2 2 3 2 2 3 3 3 3 4 4 3 3 3 5 9 10 9 9 8 9 9 8
5 4 4 4 4 3 3 2 2 1 2 1 1 1 2 2 1 2 1 2 2 2 2 2 2 2 2 3 3 4 4 3 4 4 4 9 10 10 10 9 8 8 8
5 4 4 4 4 4 3 2 2 2 1 1 1 1 2 1 2 2 1 2 2 2 2 1 2 2 2 2 2 3 3 2 3 4 3 5 10 10 10 10 9 9 8
6 5 5 5 4 4 4 3 2 2 2 1 1 1 1 2 2 2 2 1 1 1 2 2 2 2 2 3 2 2 3 3 3 3 3 3 4 8 10 10 10 9 8
5 6 5 4 5 4 4 3 2 2 2 2 1 1 2 2 2 2 2 1 1 1 1 2 1 2 2 2 2 2 2 2 3 3 3 3 3 4 6 9 10 9 8
6 6 6 5 6 5 4 3 2 2 2 2 1 1 2 2 2 2 1 1 1 1 1 1 1 2 2 2 2 2 2 2 2 3 3 3 3 3 3 6 9 9 9
5 5 5 5 6 5 4 2 2 2 1 1 1 1 2 2 2 2 2 1 1 1 1 1 1 2 2 2 3 3 3 2 2 2 2 2 3 3 3 4 4 6 8
5 5 6 6 5 5 4 3 3 2 2 1 1 2 2 2 2 2 2 1 1 1 1 1 1 2 2 2 3 2 3 3 3 2 2 2 3 3 3 4 3 3 4
7 6 6 6 6 6 4 3 3 3 2 2 1 1 2 2 2 2 2 2 1 2 2 1 2 1 1 1 2 2 1 2 2 2 2 2 2 2 3 3 3 3 3
6 7 6 7 6 6 5 3 2 2 1 1 2 2 2 2 2 2 2 2 2 2 2 2 2 2 2 0 1 2 3 2 1 1 1 1 2 2 2 2 2 3 3
7 6 6 6 6 6 5 5 5 4 4 4 3 2 2 2 2 2 2 3 2 2 2 2 1 1 3 2 0 0 1 2 2 1 2 1 2 1 1 2 2 2 2
6 6 6 6 6 6 7 7 6 4 3 2 2 2 2 1 2 2 2 2 2 2 2 2 1 1 1 2 2 1 1 1 1 2 2 2 2 2 1 1 1 1 1
5 5 5 6 6 6 7 8 8 7 5 5 4 3 3 2 2 2 2 2 2 2 2 2 2 2 2 1 1 1 2 2 2 2 2 2 2 2 2 1 1 1 1
Wind_Direction
152 231 97 89 95 92 87 84 82 81 81 83 82 81 78 74 72 70 67 65 65 67 67 67 69 70 67 65 64 64 65 65 64 68 73 72 72 72 74 73 69 61 67
154 161 112 95 95 91 88 90 87 82 81 80 82 81 78 75 71 69 67 65 64 67 68 66 67 67 66 65 64 61 61 63 62 63 62 65 70 72 70 69 67 67 67
125 123 110 93 93 89 87 91 89 85 81 79 78 78 78 75 71 69 66 64 64 65 67 67 65 66 67 66 63 62 63 65 64 59 54 41 58 71 72 69 67 66 66
110 108 105 91 93 92 90 92 91 87 84 81 78 75 74 74 72 68 65 64 65 67 67 67 66 65 67 68 68 67 68 66 64 55 45 38 44 70 72 69 66 67 66
98 90 95 91 97 98 95 93 93 89 85 80 79 77 71 71 71 68 65 64 65 67 68 67 65 64 67 67 69 70 71 67 62 51 41 36 39 64 69 71 68 68 67
92 84 93 93 97 98 97 95 94 93 88 82 77 76 72 69 66 65 64 65 64 65 65 67 67 66 67 70 70 68 69 65 55 46 40 33 36 58 66 70 71 69 67
94 84 92 91 91 91 92 93 91 90 87 83 79 74 70 69 64 61 63 64 65 64 65 67 66 67 67 71 69 64 62 61 55 44 35 26 43 60 64 65 68 72 70
103 91 88 83 85 87 89 88 87 86 84 82 80 77 72 68 66 62 61 64 65 66 68 69 68 69 68 68 67 64 61 56 52 41 30 25 50 58 59 60 61 68 69
102 96 87 83 81 80 80 80 82 82 80 79 79 77 71 66 61 60 59 63 65 64 67 70 70 70 69 68 65 62 57 49 42 32 32 28 49 58 59 58 58 62 66
105 103 97 87 82 83 81 77 77 75 71 69 68 67 66 63 59 55 55 60 62 66 64 65 69 69 67 64 60 58 55 43 34 27 19 32 46 56 54 53 57 62 69
105 106 107 100 89 86 91 84 79 76 70 67 66 66 63 56 53 49 49 57 57 62 68 65 63 66 63 60 56 55 51 40 32 23 18 34 45 55 55 56 57 61 68
138 127 118 116 108 100 101 93 86 81 75 67 68 68 64 59 50 54 48 49 48 51 58 62 62 60 60 50 50 51 45 37 34 20 24 32 41 61 61 57 57 60 62
159 146 133 134 127 118 108 108 92 90 85 72 71 66 66 62 52 48 43 38 37 39 38 43 49 47 51 56 55 54 46 41 29 18 22 31 42 58 59 57 59 58 59
158 162 155 143 136 127 120 121 119 114 104 90 76 77 82 74 61 56 47 39 38 32 31 37 50 48 53 58 65 63 54 48 35 24 25 32 38 49 54 52 54 55 54
168 171 164 153 144 139 128 132 130 132 125 123 107 91 93 99 94 79 58 51 48 44 36 39 45 51 60 55 67 74 65 54 50 42 25 29 33 39 42 43 45 45 44
179 178 167 160 150 147 142 141 151 148 144 134 123 106 106 111 108 101 78 61 50 47 40 49 60 54 54 66 68 76 75 67 61 54 41 27 30 34 35 35 41 36 33
182 178 174 168 156 152 151 153 153 155 146 137 140 125 116 110 114 112 96 72 54 48 51 48 51 64 63 57 56 66 75 77 71 61 53 43 26 28 31 31 31 30 27
179 178 178 170 160 161 164 164 160 162 156 151 150 138 128 118 117 109 101 94 80 73 65 58 51 69 59 53 45 40 56 70 71 68 59 50 41 26 24 30 26 24 23
182 179 178 173 168 169 165 165 164 164 163 158 149 140 137 124 120 118 115 108 103 88 73 68 53 88 80 60 58 50 47 53 57 65 64 55 47 37 26 26 24 21 18
180 178 178 175 176 169 159 153 150 143 153 148 154 150 141 136 133 133 125 115 109 100 83 74 79 85 97 92 72 53 39 50 56 57 62 59 51 43 34 27 18 13 15
179 182 183 181 178 168 164 168 173 179 173 173 173 161 150 144 140 136 134 133 128 129 134 116 122 101 76 89 78 50 29 41 56 48 50 55 44 36 37 34 27 18 8
188 189 192 188 183 179 179 177 179 170 173 176 170 166 167 156 154 149 153 161 156 137 111 108 134 121 105 96 110 107 38 357 14 29 39 52 40 35 34 31 34 29 23
196 193 197 193 185 183 176 157 141 123 114 142 178 192 193 170 167 167 174 168 162 152 153 153 169 148 159 138 101 138 149 203 295 333 5 30 25 27 16 11 21 25 30
205 199 199 193 184 182 175 172 173 178 183 195 188 188 188 181 175 174 175 166 159 154 159 175 177 172 154 166 150 51 133 152 163 274 315 342 347 344 336 345 355 3 26
198 196 198 192 194 186 182 180 181 190 190 171 159 170 181 190 180 173 167 162 165 163 170 170 167 157 164 168 165 148 108 83 133 166 252 298 316 291 280 280 295 335 5
195 194 191 194 201 196 190 187 187 190 182 173 177 184 191 194 192 183 168 168 171 172 176 178 173 174 183 163 157 160 162 165 178 171 211 253 275 279 274 257 246 267 298